Location: St Andrew
(49.4460°N, 2.5750°W)
Time: 09:56:51
(UTC+01:00)

Daily predictions for brighter satellites

Satellite Brightness Start Highest point End
(mag) Time Altitude Azimuth Time Altitude Azimuth Time Altitude Azimuth
SL-16 R/B 3.8 20:43:44 10° SE 20:46:36 14° E 20:49:29 10° ENE
ARGOS 4.1 20:44:24 10° ESE 20:49:00 31° ENE 20:53:38 10° N
Cosmos 1825 2.9 20:45:29 10° N 20:49:03 36° ENE 20:52:34 10° SE
Cosmos 1633 Rocket 3.2 20:45:07 10° NNW 20:49:29 79° W 20:53:51 10° S
Cosmos 407 Rocket 4.3 20:47:03 10° N 20:51:47 36° ENE 20:56:29 10° ESE
ERS-1 Rocket 4.3 20:50:42 10° ESE 20:54:40 24° ENE 20:58:38 10° N
Meteor 2-3 Rocket 3.8 20:50:41 10° NNW 20:56:19 88° W 21:01:58 10° S
USA 234 4.2 20:54:43 10° ENE 21:00:54 46° N 21:07:05 10° WNW
USA 186 2.3 20:59:46 10° S 21:01:56 39° W 21:04:10 10° NNW
Cosmos 1515 Rocket 3.7 21:01:20 10° S 21:05:40 54° E 21:10:03 10° NNE
SJ-11-01 4.3 21:01:29 10° SSE 21:06:08 89° WSW 21:10:52 10° NNW
BREEZE-M DEB (TANK) 2.8 20:57:36 10° W 21:06:25 87° S 21:09:17 10° E
H-2A R/B 2.9 21:03:25 10° SE 21:07:49 32° ENE 21:12:10 10° N
Cosmos 2360 Rocket 4.0 21:04:06 10° WSW 21:09:15 36° NW 21:14:26 10° NNE
Cosmos 1980 3.8 21:06:24 10° S 21:11:55 54° ESE 21:17:27 10° NE
Cosmos 2154 Rocket 4.4 21:06:57 10° SSW 21:13:11 68° WNW 21:19:24 10° N
Cosmos 2297 4.1 21:08:20 10° NNW 21:13:53 52° NE 21:18:51 13° SE
Cosmos 2228 Rocket 3.0 21:10:17 10° S 21:14:37 65° E 21:19:00 10° NNE
ATLAS CENTAUR R/B 1.0 21:12:09 10° SSW 21:15:49 69° SE 21:19:42 10° NE
Cosmos 2369 Rocket 4.0 21:14:20 10° N 21:18:25 19° NE 21:22:28 10° E
Cosmos 1727 Rocket 4.2 21:13:55 10° N 21:20:00 53° ENE 21:25:52 11° SSE
Terra 3.9 21:17:38 10° E 21:20:01 14° NE 21:22:23 10° NNE
NOSS 2-1 (C) 4.1 21:16:51 10° WSW 21:20:30 56° NW 21:24:49 10° NE
NOSS 2-1 (D) 4.2 21:17:51 10° WSW 21:21:30 54° NW 21:25:49 10° NE
Cosmos 1328 Rocket 3.9 21:19:06 10° SSW 21:23:31 73° WNW 21:27:59 10° N
Cosmos 2333 Rocket 2.3 21:18:50 10° SSW 21:24:30 85° WNW 21:30:13 10° NNE
BREEZE-M DEB (TANK) 1.5 21:23:20 10° WSW 21:25:53 81° S 21:27:37 15° E
ATLAS 2AS CENTAUR R/B 3.7 21:18:41 10° NW 21:26:13 49° WSW 21:33:12 10° S
Cosmos 1408 2.8 21:23:24 10° NNW 21:27:04 72° W 21:30:44 10° S
USA 245 4.1 21:26:45 15° E 21:27:10 16° ENE 21:28:42 10° NNE
Cosmos 2056 Rocket 4.0 21:23:42 10° S 21:28:43 40° ESE 21:33:44 10° NE
NOSS 0 Rocket 3.9 21:23:14 10° SSW 21:29:24 78° ESE 21:35:38 10° NNE
COSMOS 2428 3.7 21:24:14 10° SW 21:29:49 52° NW 21:35:25 10° NNE
Cosmos 1939 Rocket 4.4 21:27:08 10° SSW 21:30:41 34° W 21:34:19 10° NNW
Cosmos 1869 3.4 21:26:59 10° S 21:30:55 57° E 21:34:53 10° NNE
MetOp-A 4.2 21:26:13 12° SSE 21:31:06 63° ENE 21:36:24 10° N
Cosmos 1470 Rocket 4.3 21:29:07 10° NNW 21:33:24 53° W 21:37:43 10° S
Cosmos 2219 Rocket 2.8 21:30:16 10° SW 21:35:53 63° WNW 21:41:31 10° NNE
Lacrosse 5 2.9 21:32:01 10° NW 21:36:49 41° NNE 21:41:35 10° E
SL-8 R/B 4.1 21:32:50 10° SW 21:37:21 42° SSE 21:41:43 11° E
Cosmos 2341 Rocket 4.5 21:31:30 10° SSW 21:37:49 66° WNW 21:44:08 10° N
Cosmos 2237 Rocket 2.1 21:33:24 10° SSW 21:39:00 78° ESE 21:44:40 10° NNE
Cosmos 2098 Rocket 2.8 21:34:45 10° S 21:39:07 58° E 21:42:39 10° NNE
Resurs 01 Rocket 3.1 21:35:51 10° SSW 21:39:57 36° W 21:44:04 10° NNW
Cosmos 2218 Rocket 4.0 21:34:51 10° S 21:41:13 79° E 21:47:39 10° NNE
SPOT 5 3.6 21:40:07 19° ESE 21:42:37 33° ENE 21:46:36 10° N
Cosmos 1455 3.9 21:40:20 10° SW 21:43:55 36° WNW 21:47:31 10° N
Cosmos 1190 Rocket 4.0 21:38:47 10° NNW 21:44:08 89° ENE 21:48:13 17° SSE
Cosmos 1140 Rocket 3.9 21:39:09 10° NNW 21:44:12 50° ENE 21:47:25 21° SE
ATLAS 5 CENTAUR R/B 3.5 21:39:22 10° NW 21:44:22 32° NNE 21:49:31 12° E
Cosmos 2278 Rocket 3.1 21:39:13 10° NW 21:44:36 45° WSW 21:49:57 10° S
Cosmos 1624 Rocket 4.0 21:40:25 10° S 21:45:28 56° ESE 21:50:34 10° NNE
Cosmos 1441 Rocket 3.7 21:46:04 24° SE 21:47:43 37° E 21:51:13 10° NNE
Cosmos 2366 rocket 4.0 21:45:19 10° S 21:51:33 85° E 21:57:54 10° N
Cosmos 1954 Rocket 4.1 21:51:24 10° NNW 21:56:37 63° ENE 21:59:36 25° SE
NOSS 3-4 (A) 3.9 21:50:06 10° NW 21:57:03 76° SW 22:02:26 20° SSE
NOSS 3-4 (C) 3.9 21:50:12 10° NW 21:57:09 77° SW 22:02:32 21° SSE
SL-08 RB Rocket 3.6 21:55:53 21° SSE 21:58:52 82° ENE 22:03:21 10° NNW
SL-8 Rocket 4.4 21:54:00 10° SSW 22:00:16 67° WNW 22:06:32 10° N
Cosmos 405 3.3 21:59:28 10° NNW 22:02:57 62° W 22:05:00 22° S
Helios 1B rocket 3.4 22:01:14 10° NE 22:04:47 27° E 22:05:06 27° ESE
Cosmos 1151 Rocket 4.4 22:02:17 10° SW 22:06:18 39° WNW 22:10:22 10° N
USA 267 4.0 22:01:28 10° ENE 22:06:49 26° SE 22:12:09 10° S
GEOS 3 Rocket 4.2 22:07:06 10° NE 22:12:01 36° ESE 22:14:44 22° S
CZ-4C R/B 3.2 22:15:28 25° ESE 22:15:28 25° ESE 22:19:43 10° ENE
Cosmos 1862 3.5 22:12:10 10° NNW 22:16:13 69° W 22:18:18 27° S
Cosmos 1437 Rocket 3.3 22:14:36 10° N 22:18:18 41° ENE 22:19:00 37° ESE
Cosmos 405 Rocket 2.6 22:16:37 30° S 22:18:26 77° E 22:22:24 10° NNE
RESURS DK-1 3.9 22:16:14 10° N 22:19:46 26° NE 22:21:11 21° ENE
Cosmos 1707 Rocket 3.4 22:18:09 31° S 22:20:05 67° E 22:24:24 10° NNE
CZ-2C R/B 4.1 22:20:47 24° E 22:22:15 28° ENE 22:26:21 10° N
Cosmos 1869 Rocket 4.0 22:20:15 10° NNW 22:24:34 58° W 22:27:03 24° SSW
Cosmos 1943 Rocket 3.2 22:23:50 10° NNW 22:28:53 35° NE 22:31:20 24° E
ARGOS 3.9 22:24:51 15° S 22:29:04 47° W 22:34:15 10° NNW
Cosmos 614 Rocket 4.0 22:23:52 10° NNW 22:29:07 75° WSW 22:31:32 32° S
SL-16 R/B 2.1 22:24:09 10° SSW 22:29:48 81° ESE 22:35:30 10° NNE
Helios 1A 3.0 22:28:18 35° S 22:29:59 74° WSW 22:34:12 10° NNW
Cosmos 1633 3.4 22:27:35 10° N 22:30:48 33° ENE 22:30:48 33° ENE
Cosmos 1420 Rocket 4.3 22:30:04 36° SSE 22:31:37 46° ESE 22:36:42 10° NNE
DMSP B5D2-2 4.1 22:26:46 10° NNE 22:32:01 63° ESE 22:34:23 32° S
ERS-1 Rocket 3.4 22:30:04 23° S 22:33:06 57° W 22:38:04 10° NNW
Spot 1 4.3 22:32:34 39° SSE 22:34:20 75° ENE 22:39:02 10° NNW
Cosmos 1733 Rocket 3.2 22:30:50 10° N 22:35:12 58° ENE 22:36:06 47° ESE
Meteor 1-4 Rocket 3.3 22:33:51 10° N 22:36:54 35° ENE 22:36:54 35° ENE
CARTOSAT-1 3.7 22:36:54 47° ESE 22:37:49 58° ENE 22:42:05 10° N
YAOGAN 11 4.4 22:37:41 43° ESE 22:38:29 49° ENE 22:42:39 10° N
SPOT 1/Viking Rocket 3.5 22:36:35 34° S 22:38:56 84° WSW 22:44:12 10° NNW
Landsat 7 3.7 22:37:37 42° SSE 22:39:13 81° ENE 22:44:00 10° NNW
USA 234 3.5 22:38:51 21° E 22:43:25 64° NNE 22:49:53 10° WNW
Cosmos 1934 Rocket 4.0 22:42:21 36° SSE 22:44:37 57° E 22:50:32 10° NNE
Meteor 1-29 3.7 22:41:53 10° NNE 22:44:26 41° NE 22:44:26 41° NE
H-2A R/B 3.0 22:44:01 19° SSW 22:47:09 40° W 22:51:50 10° NNW
IGS 5A 3.3 22:53:07 66° SSE 22:53:42 84° ENE 22:57:54 10° NNW
ATLAS CENTAUR R/B 3.9 22:52:14 10° W 22:55:13 21° NNW 22:58:21 10° NNE
Cosmos 1603 3.9 22:56:16 46° SE 22:56:57 48° ESE 23:02:21 10° NE
Terra 1.7 22:55:58 55° SSE 22:57:01 82° ENE 23:01:48 10° NNW
Cosmos 389 Rocket 4.2 22:54:31 10° NNE 22:56:44 23° NE 22:56:44 23° NE
Cosmos 1943 4.1 23:00:41 30° E 23:00:41 30° E 23:05:00 10° NE
Meteor 1-14 Rocket 4.1 22:55:06 10° N 23:00:41 84° ENE 23:02:17 48° SSE
Cosmos 2369 Rocket 2.2 22:57:43 10° NNW 23:03:28 75° ENE 23:05:00 49° SE
Cosmos 2242 Rocket 3.4 23:04:10 71° SE 23:04:30 77° E 23:08:56 10° NNE
Cosmos 1933 4.1 23:04:11 34° SW 23:05:32 50° WNW 23:09:32 10° N
Spot 4 4.4 23:05:13 41° E 23:05:50 43° ENE 23:10:21 10° N
Cosmos 2263 4.4 23:00:30 10° NNW 23:06:04 60° ENE 23:07:32 45° ESE
Cosmos 1452 Rocket 3.6 23:08:35 28° SSW 23:11:25 75° WNW 23:16:43 10° NNE
Cosmos 1821 Rocket 4.2 23:08:19 25° SSW 23:12:11 70° WNW 23:18:28 10° N
SAR-Lupe-4 4.2 23:16:13 49° NNE 23:16:13 49° NNE 23:19:05 10° N
CZ-2C R/B 3.2 23:11:18 10° NNE 23:16:20 41° E 23:16:20 41° E
SL-8 R/B 3.5 23:14:50 10° W 23:19:39 78° S 23:19:44 78° SSE
Lacrosse 5 1.7 23:15:07 10° WNW 23:20:13 84° SW 23:20:46 71° SE
SPOT 5 4.1 23:19:21 26° SW 23:20:44 31° W 23:24:42 10° NNW
Cosmos 1606 3.3 23:22:31 50° NE 23:22:31 50° NE 23:25:35 10° NNE
Meteor 1-25 Rocket 4.3 23:17:08 10° NNW 23:22:52 71° W 23:24:23 49° SSW
Cosmos 2237 Rocket 4.4 23:19:09 10° W 23:23:43 25° NW 23:28:19 10° NNE
Cosmos 1782 3.5 23:24:49 44° NE 23:24:49 44° NE 23:27:48 10° NNE
Cosmos 2344 3.6 23:16:56 10° SW 23:24:32 87° SE 23:33:23 10° NE
Cosmos 2123 Rocket 4.2 23:19:08 10° NNW 23:25:24 67° W 23:27:35 41° SSW
Cosmos 1850 Rocket 4.3 23:20:51 10° NNW 23:25:54 53° WSW 23:26:48 47° SW
Cosmos 1703 Rocket 4.4 23:27:17 39° ENE 23:27:17 39° ENE 23:30:33 10° NNE
SeaSat 1 4.0 23:26:32 23° ENE 23:28:10 27° NE 23:32:17 10° NNW
Cosmos 1908 Rocket 3.5 23:24:50 10° N 23:29:14 87° NNE 23:29:14 87° NNE
ATLAS 5 CENTAUR R/B 2.3 23:23:51 10° NW 23:29:40 85° SW 23:31:03 57° SSE
Meteor 1-26 Rocket 4.4 23:29:15 39° SW 23:31:14 66° WNW 23:36:49 10° N
H-2A R/B 3.6 23:33:32 26° ENE 23:33:42 26° ENE 23:37:29 10° N
Cosmos 1862 Rocket 3.9 23:36:04 55° WSW 23:36:29 58° WNW 23:40:50 10° N
Helios 1B rocket 3.9 23:36:23 10° N 23:40:06 33° WNW 23:41:27 26° WSW
Cosmos 921 Rocket 3.2 23:46:04 67° NW 23:46:04 67° NW 23:50:13 10° NNE
ALOS 2 3.7 23:49:32 35° ENE 23:49:32 35° ENE 23:53:15 10° N
Meteor 1-10 Rocket 4.2 23:48:43 66° SE 23:49:21 73° E 23:55:18 10° NNE
Meteor 2-6 Rocket 4.2 23:48:49 67° SE 23:49:21 71° E 23:55:16 10° NNE
GEOS 3 Rocket 4.2 23:44:57 10° NE 23:50:15 58° NW 23:55:26 10° WSW
USA 267 3.1 23:43:57 10° ENE 23:50:31 78° SE 23:57:05 10° SW
Cosmos 1602 4.5 23:48:09 10° N 23:51:14 52° NNW 23:51:14 52° NNW
Cosmos 1271 Rocket 3.9 23:50:29 10° N 23:53:19 38° NNE 23:53:19 38° NNE
